Regional Weather Roundup
Issued by NWS Sioux Falls, SD

Home | Current Version | Previous Version | Text Only | Print | Product List | Glossary On
Versions: 1 2 3 4 5 6 7 8 9 10 11 12 13 14 15 16 17 18 19 20 21 22 23 24 25 26 27 28 29 30 31 32 33 34 35 36 37 38 39 40 41 42 43 44 45 46 47 48 49 50
000
ASUS43 KFSD 311610
RWRFSD

WEATHER ROUNDUP FOR SE SOUTH DAKOTA/SW MINNESOTA/NW IOWA
NATIONAL WEATHER SERVICE SIOUX FALLS SD
1100 AM CDT FRI JUL 31 2015

NOTE: "FAIR" INDICATES FEW OR NO CLOUDS BELOW 12,000 FEET WITH NO
SIGNIFICANT WEATHER AND OR OBSTRUCTIONS TO VISIBILITY.


SDZ038>040-050-052>070-311700-
SOUTHEAST SOUTH DAKOTA

CITY           SKY/WX    TMP DP  RH WIND       PRES   REMARKS
BROOKINGS      SUNNY     75  52  43 NE5       30.18F
CHAMBERLAIN    SUNNY     78  55  44 E8        30.17S
HURON          SUNNY     78  56  46 SE6       30.15F
MADISON        FAIR      75  57  53 NE7       30.18F
MITCHELL       SUNNY     79  59  50 E7        30.17S
SIOUX FALLS    SUNNY     78  58  49 NE10      30.16F
WINNER         FAIR      84  59  42 E9        30.16F
YANKTON        SUNNY     79  70  73 E5        30.12S
$$

MNZ071-072-080-081-089-090-097-098-311700-
SOUTHWEST MINNESOTA

CITY           SKY/WX    TMP DP  RH WIND       PRES   REMARKS
FAIRMONT       SUNNY     75  54  46 NW8       30.14S
JACKSON        SUNNY     77  55  47 N5        30.17S
LUVERNE        SUNNY     77  54  44 N3        30.17S
MARSHALL       SUNNY     77  55  47 W8        30.16F
MONTEVIDEO     SUNNY     79  63  57 NW7       30.15S
PIPESTONE      SUNNY     75  52  43 CALM      30.18S
REDWOOD FALLS  SUNNY     77  55  46 W9        30.13S
TRACY          SUNNY     77  59  53 W5        30.16S
WINDOM         SUNNY     77  54  44 CALM      30.16S
WORTHINGTON    SUNNY     75  54  46 N9        30.17S
$$

IAZ001>003-012>014-020>022-031-032-NEZ013-014-SDZ071-311700-
NORTHWEST IOWA

CITY           SKY/WX    TMP DP  RH WIND       PRES   REMARKS
CHEROKEE       SUNNY     80  65  59 NE5       30.15S
DENISON        SUNNY     79  68  69 VRB6      30.13S HAZE
ESTHERVILLE    MOSUNNY   76  58  53 N6        30.16S
LE MARS        SUNNY     81  68  65 CALM      30.15S
ORANGE CITY    SUNNY     79  59  50 NE5       30.16S
SHELDON        SUNNY     77  61  57 N7        30.16S
SIOUX CITY     SUNNY     80  66  62 NE3       30.14S
SPENCER        SUNNY     80  58  46 N9        30.16S
STORM LAKE     SUNNY     79  57  47 NE5       30.16F
$$

ABBREVIATIONS USED IN REMARKS
   TC - TEMPERATURE IN CELSIUS
  WCI - WIND CHILL INDEX
   HX - HEAT INDEX
  VSB - VISIBILITY



USA.gov is the U.S. government's official web portal to all federal, state and local government web resources and services.